Weather Service Report


167 
ASCA42 TJSJ 030810
RWRPR 
PUERTO RICO/U.S. VIRGIN ISLANDS HOURLY WEATHER ROUNDUP
NATIONAL WEATHER SERVICE SAN JUAN PR
400 AM AST MON AUG 03 2015

PRZ001-004-030900-
PUERTO RICO
  
CITY           SKY/WX    TMP DP  RH WIND       PRES   REMARKS
SAN JUAN LMM   MOCLDY    79  79 100 E5        29.97S                  
PONCE          MOCLDY    81  75  83 CALM      29.93S THUNDER          
$$

PRZ006-007-030900-
U.S. VIRGIN ISLANDS
  
CITY           SKY/WX    TMP DP  RH WIND       PRES   REMARKS
CHARLOTTE AMA  PTCLDY    82  73  74 E10       29.97S                  
CHRISTIANSTED  PTCLDY    81  73  78 E12       29.98R                  
$$

HOURLY WEATHER ROUNDUP FOR THE NEWS MEDIA
  
CITY           SKY/WX    TMP DP  RH WIND       PRES   REMARKS
ORLANDO        MOCLDY    76  72  87 S12       29.89S                  
NEW YORK       PTCLDY    73  64  73 SW8       29.86R                  
NEWARK         CLEAR     74  60  61 SW6       29.84F                  
CHICAGO        MOCLDY    68  66  93 W6        29.75S                  
HARTFORD       CLEAR     67  67 100 CALM      29.87R FOG              
BOSTON         CLEAR     69  66  90 S5        29.85S                  
DALLAS         PTCLDY    83  59  44 SE8       29.87F                  
PHILADELPHIA   CLEAR     73  64  73 S8        29.87S                  
LOS ANGELES    CLEAR     70  61  73 VRB3      29.87R                  
WASHINGTON DC  PTCLDY    67  62  84 S6        29.87F                  

Return to Home page


Western Regional Climate Center, wrcc@dri.edu